owner,sensor,date,latitude,longitude,vertical_datum,direction_of_sea_water_velocity,sea_water_speed,upward_sea_water_velocity,qcFlag 
TABS,ioos:station:wmo:42043:1,2003-07-21T13:00:00Z,28.9818,-94.9186,2.0,65.6576903,68.14848641,-99999.0,'11111222,11111222,99999999' 
TABS,ioos:station:wmo:42043:1,2003-07-21T13:30:00Z,28.9818,-94.9186,2.0,66.26285129,69.98022935,-99999.0,'11111222,11111222,99999999' 
TABS,ioos:station:wmo:42043:1,2003-07-21T14:00:00Z,28.9818,-94.9186,2.0,67.24709726,68.88018583,-99999.0,'11111222,11111222,99999999' 
TABS,ioos:station:wmo:42043:1,2003-07-21T14:30:00Z,28.9818,-94.9186,2.0,70.18346346,68.19853371,-99999.0,'11111222,11111222,99999999' 
TABS,ioos:station:wmo:42043:1,2003-07-21T15:00:00Z,28.9818,-94.9186,2.0,72.19248764,70.46609539,-99999.0,'11111222,11111222,99999999' 
TABS,ioos:station:wmo:42043:1,2003-07-21T15:30:00Z,28.9818,-94.9186,2.0,74.40420542,67.993371,-99999.0,'11111222,11111222,99999999' 
TABS,ioos:station:wmo:42043:1,2003-07-21T16:00:00Z,28.9818,-94.9186,2.0,73.30320203,68.39358596,-99999.0,'11111222,11111222,99999999' 
TABS,ioos:station:wmo:42043:1,2003-07-21T16:30:00Z,28.9818,-94.9186,2.0,72.29318243,70.42644745,-99999.0,'11111222,11111222,99999999' 
TABS,ioos:station:wmo:42043:1,2003-07-21T17:00:00Z,28.9818,-94.9186,2.0,74.01487346,63.32872966,-99999.0,'11111222,11111222,99999999' 
TABS,ioos:station:wmo:42043:1,2003-07-21T17:30:00Z,28.9818,-94.9186,2.0,74.42012409,57.71046785,-99999.0,'11111222,11111222,99999999' 
TABS,ioos:station:wmo:42043:1,2003-07-21T18:00:00Z,28.9818,-94.9186,2.0,79.104699,59.62478847,-99999.0,'11111222,11111222,99999999' 
TABS,ioos:station:wmo:42043:1,2003-07-21T18:30:00Z,28.9818,-94.9186,2.0,78.91786874,56.23870731,-99999.0,'11111222,11111222,99999999' 
TABS,ioos:station:wmo:42043:1,2003-07-21T19:00:00Z,28.9818,-94.9186,2.0,78.50525753,58.36054318,-99999.0,'11111222,11111222,99999999' 
TABS,ioos:station:wmo:42043:1,2003-07-21T19:30:00Z,28.9818,-94.9186,2.0,76.95722682,55.25549565,-99999.0,'11111222,11111222,99999999' 
TABS,ioos:station:wmo:42043:1,2003-07-21T20:00:00Z,28.9818,-94.9186,2.0,77.4516912,47.73012675,-99999.0,'11111222,11111222,99999999' 
TABS,ioos:station:wmo:42043:1,2003-07-21T20:30:00Z,28.9818,-94.9186,2.0,76.41900151,58.00179997,-99999.0,'11111222,11111222,99999999' 
TABS,ioos:station:wmo:42043:1,2003-07-21T21:00:00Z,28.9818,-94.9186,2.0,74.62302331,54.41806502,-99999.0,'11111222,11111222,99999999' 
TABS,ioos:station:wmo:42043:1,2003-07-21T21:30:00Z,28.9818,-94.9186,2.0,71.42046302,58.87863534,-99999.0,'11111222,11111222,99999999' 
TABS,ioos:station:wmo:42043:1,2003-07-21T22:00:00Z,28.9818,-94.9186,2.0,73.16082587,58.02816299,-99999.0,'11111222,11111222,99999999' 
TABS,ioos:station:wmo:42043:1,2003-07-21T22:30:00Z,28.9818,-94.9186,2.0,74.53395537,67.64969771,-99999.0,'11111222,11111222,99999999' 
TABS,ioos:station:wmo:42043:1,2003-07-21T23:00:00Z,28.9818,-94.9186,2.0,73.84776768,73.04332961,-99999.0,'11111222,11111222,99999999' 
TABS,ioos:station:wmo:42043:1,2003-07-21T23:30:00Z,28.9818,-94.9186,2.0,70.87986941,80.38452214,-99999.0,'11111222,11111222,99999999' 
TABS,ioos:station:wmo:42043:1,2003-07-22T00:00:00Z,28.9818,-94.9186,2.0,70.86692705,84.08488092,-99999.0,'11111222,11111222,99999999' 
TABS,ioos:station:wmo:42043:1,2003-07-22T00:30:00Z,28.9818,-94.9186,2.0,70.65113549,75.33503833,-99999.0,'11111222,11111222,99999999' 
TABS,ioos:station:wmo:42043:1,2003-07-22T01:00:00Z,28.9818,-94.9186,2.0,69.15282439,81.06725665,-99999.0,'11111222,11111222,99999999' 
TABS,ioos:station:wmo:42043:1,2003-07-22T01:30:00Z,28.9818,-94.9186,2.0,66.62253347,75.68277083,-99999.0,'11111222,11111222,99999999' 
TABS,ioos:station:wmo:42043:1,2003-07-22T02:00:00Z,28.9818,-94.9186,2.0,67.14280033,78.90606187,-99999.0,'11111222,11111222,99999999' 
TABS,ioos:station:wmo:42043:1,2003-07-22T02:30:00Z,28.9818,-94.9186,2.0,66.81074071,72.98668166,-99999.0,'11111222,11111222,99999999' 
TABS,ioos:station:wmo:42043:1,2003-07-22T03:00:00Z,28.9818,-94.9186,2.0,65.64582467,71.87600434,-99999.0,'11111222,11111222,99999999' 
TABS,ioos:station:wmo:42043:1,2003-07-22T03:30:00Z,28.9818,-94.9186,2.0,66.63263995,72.63772092,-99999.0,'11111222,11111222,99999999' 
TABS,ioos:station:wmo:42043:1,2003-07-22T04:00:00Z,28.9818,-94.9186,2.0,65.98105465,73.0887139,-99999.0,'11111222,11111222,99999999' 
TABS,ioos:station:wmo:42043:1,2003-07-22T04:30:00Z,28.9818,-94.9186,2.0,65.13017193,81.93855747,-99999.0,'11111222,11111222,99999999' 
TABS,ioos:station:wmo:42043:1,2003-07-22T05:00:00Z,28.9818,-94.9186,2.0,66.59774939,75.70782853,-99999.0,'11111222,11111222,99999999' 
TABS,ioos:station:wmo:42043:1,2003-07-22T05:30:00Z,28.9818,-94.9186,2.0,66.06938564,78.61826569,-99999.0,'11111222,11111222,99999999' 
TABS,ioos:station:wmo:42043:1,2003-07-22T06:00:00Z,28.9818,-94.9186,2.0,65.50929987,81.05243735,-99999.0,'11111222,11111222,99999999' 
TABS,ioos:station:wmo:42043:1,2003-07-22T06:30:00Z,28.9818,-94.9186,2.0,63.4592682,84.50548858,-99999.0,'11111222,11111222,99999999' 
TABS,ioos:station:wmo:42043:1,2003-07-22T07:00:00Z,28.9818,-94.9186,2.0,63.84480741,90.03981619,-99999.0,'11111222,11111222,99999999' 
TABS,ioos:station:wmo:42043:1,2003-07-22T07:30:00Z,28.9818,-94.9186,2.0,65.78382134,90.78908304,-99999.0,'11111222,11111222,99999999' 
TABS,ioos:station:wmo:42043:1,2003-07-22T08:00:00Z,28.9818,-94.9186,2.0,64.27667974,88.28948975,-99999.0,'11111222,11111222,99999999' 
TABS,ioos:station:wmo:42043:1,2003-07-22T08:30:00Z,28.9818,-94.9186,2.0,63.55778341,98.09205523,-99999.0,'11111222,11111222,99999999' 
TABS,ioos:station:wmo:42043:1,2003-07-22T09:00:00Z,28.9818,-94.9186,2.0,62.13209443,78.27814574,-99999.0,'11111222,11111222,99999999' 
TABS,ioos:station:wmo:42043:1,2003-07-22T09:30:00Z,28.9818,-94.9186,2.0,61.56681616,80.25041433,-99999.0,'11111222,11111222,99999999' 
TABS,ioos:station:wmo:42043:1,2003-07-22T10:00:00Z,28.9818,-94.9186,2.0,62.90241512,96.22216221,-99999.0,'11111222,11111222,99999999' 
TABS,ioos:station:wmo:42043:1,2003-07-22T10:30:00Z,28.9818,-94.9186,2.0,63.37735726,84.44291385,-99999.0,'11111222,11111222,99999999' 
TABS,ioos:station:wmo:42043:1,2003-07-22T11:00:00Z,28.9818,-94.9186,2.0,64.36238674,99.19602462,-99999.0,'11111222,11111222,99999999' 
TABS,ioos:station:wmo:42043:1,2003-07-22T11:30:00Z,28.9818,-94.9186,2.0,62.04992496,99.72199206,-99999.0,'11111222,11111222,99999999' 
TABS,ioos:station:wmo:42043:1,2003-07-22T12:00:00Z,28.9818,-94.9186,2.0,63.33466366,94.47848909,-99999.0,'11111222,11111222,99999999' 
TABS,ioos:station:wmo:42043:1,2003-07-22T12:30:00Z,28.9818,-94.9186,2.0,63.61059254,96.31684432,-99999.0,'11111222,11111222,99999999' 
TABS,ioos:station:wmo:42043:1,2003-07-22T13:00:00Z,28.9818,-94.9186,2.0,65.43304711,92.48186092,-99999.0,'11111222,11111222,99999999' 
TABS,ioos:station:wmo:42043:1,2003-07-22T13:30:00Z,28.9818,-94.9186,2.0,65.91651833,92.75410988,-99999.0,'11111222,11111222,99999999' 
TABS,ioos:station:wmo:42043:1,2003-07-22T14:00:00Z,28.9818,-94.9186,2.0,66.22923831,85.59111461,-99999.0,'11111222,11111222,99999999' 
TABS,ioos:station:wmo:42043:1,2003-07-22T14:30:00Z,28.9818,-94.9186,2.0,66.62860115,88.78456172,-99999.0,'11111222,11111222,99999999' 
TABS,ioos:station:wmo:42043:1,2003-07-22T15:00:00Z,28.9818,-94.9186,2.0,65.23010011,92.65446185,-99999.0,'11111222,11111222,99999999' 
TABS,ioos:station:wmo:42043:1,2003-07-22T15:30:00Z,28.9818,-94.9186,2.0,65.23448083,87.87161203,-99999.0,'11111222,11111222,99999999' 
TABS,ioos:station:wmo:42043:1,2003-07-22T16:00:00Z,28.9818,-94.9186,2.0,65.92455804,92.66067127,-99999.0,'11111222,11111222,99999999' 
TABS,ioos:station:wmo:42043:1,2003-07-22T16:30:00Z,28.9818,-94.9186,2.0,68.63432435,94.75192874,-99999.0,'11111222,11111222,99999999' 
TABS,ioos:station:wmo:42043:1,2003-07-22T17:00:00Z,28.9818,-94.9186,2.0,70.21175332,93.72443118,-99999.0,'11111222,11111222,99999999' 
TABS,ioos:station:wmo:42043:1,2003-07-22T17:30:00Z,28.9818,-94.9186,2.0,71.39563674,96.22853007,-99999.0,'11111222,11111222,99999999' 
TABS,ioos:station:wmo:42043:1,2003-07-22T18:00:00Z,28.9818,-94.9186,2.0,70.6036584,96.11514969,-99999.0,'11111222,11111222,99999999' 
TABS,ioos:station:wmo:42043:1,2003-07-22T18:30:00Z,28.9818,-94.9186,2.0,71.43624071,89.99232523,-99999.0,'11111222,11111222,99999999' 
TABS,ioos:station:wmo:42043:1,2003-07-22T19:00:00Z,28.9818,-94.9186,2.0,73.96815178,83.71586469,-99999.0,'11111222,11111222,99999999' 
TABS,ioos:station:wmo:42043:1,2003-07-22T19:30:00Z,28.9818,-94.9186,2.0,71.59186891,87.97141183,-99999.0,'11111222,11111222,99999999' 
TABS,ioos:station:wmo:42043:1,2003-07-22T20:00:00Z,28.9818,-94.9186,2.0,75.29453987,78.90464688,-99999.0,'11111222,11111222,99999999' 
TABS,ioos:station:wmo:42043:1,2003-07-22T20:30:00Z,28.9818,-94.9186,2.0,72.8898225,90.00350438,-99999.0,'11111222,11111222,99999999' 
TABS,ioos:station:wmo:42043:1,2003-07-22T21:00:00Z,28.9818,-94.9186,2.0,72.35506954,91.5155271,-99999.0,'11111222,11111222,99999999' 
TABS,ioos:station:wmo:42043:1,2003-07-22T21:30:00Z,28.9818,-94.9186,2.0,71.30863381,72.7679002,-99999.0,'11111222,11111222,99999999' 
TABS,ioos:station:wmo:42043:1,2003-07-22T22:00:00Z,28.9818,-94.9186,2.0,70.54238052,72.10825542,-99999.0,'11111222,11111222,99999999' 
TABS,ioos:station:wmo:42043:1,2003-07-22T22:30:00Z,28.9818,-94.9186,2.0,71.2790951,70.3204444,-99999.0,'11111222,11111222,99999999' 
TABS,ioos:station:wmo:42043:1,2003-07-22T23:00:00Z,28.9818,-94.9186,2.0,70.16029031,64.88097795,-99999.0,'11111222,11111222,99999999' 
TABS,ioos:station:wmo:42043:1,2003-07-22T23:30:00Z,28.9818,-94.9186,2.0,68.42967107,66.77658647,-99999.0,'11111222,11111222,99999999' 
TABS,ioos:station:wmo:42043:1,2003-07-23T00:00:00Z,28.9818,-94.9186,2.0,67.63708109,65.36604164,-99999.0,'11111222,11111222,99999999' 
TABS,ioos:station:wmo:42043:1,2003-07-23T00:30:00Z,28.9818,-94.9186,2.0,66.44736599,63.31454493,-99999.0,'11111222,11111222,99999999' 
TABS,ioos:station:wmo:42043:1,2003-07-23T01:00:00Z,28.9818,-94.9186,2.0,65.0043085,65.48321464,-99999.0,'11111222,11111222,99999999' 
TABS,ioos:station:wmo:42043:1,2003-07-23T01:30:00Z,28.9818,-94.9186,2.0,60.84842908,72.83585999,-99999.0,'11111222,11111222,99999999' 
TABS,ioos:station:wmo:42043:1,2003-07-23T02:00:00Z,28.9818,-94.9186,2.0,62.6480105,64.46744915,-99999.0,'11111222,11111222,99999999' 
TABS,ioos:station:wmo:42043:1,2003-07-23T02:30:00Z,28.9818,-94.9186,2.0,61.40258543,59.8972203,-99999.0,'11111222,11111222,99999999' 
TABS,ioos:station:wmo:42043:1,2003-07-23T03:00:00Z,28.9818,-94.9186,2.0,61.00234505,68.4853999,-99999.0,'11111222,11111222,99999999' 
TABS,ioos:station:wmo:42043:1,2003-07-23T03:30:00Z,28.9818,-94.9186,2.0,62.60488058,60.80954284,-99999.0,'11111222,11111222,99999999' 
TABS,ioos:station:wmo:42043:1,2003-07-23T04:00:00Z,28.9818,-94.9186,2.0,62.71729615,78.18801507,-99999.0,'11111222,11111222,99999999' 
TABS,ioos:station:wmo:42043:1,2003-07-23T04:30:00Z,28.9818,-94.9186,2.0,63.95203649,66.90587792,-99999.0,'11111222,11111222,99999999' 
TABS,ioos:station:wmo:42043:1,2003-07-23T05:00:00Z,28.9818,-94.9186,2.0,64.62405863,68.53235221,-99999.0,'11111222,11111222,99999999' 
TABS,ioos:station:wmo:42043:1,2003-07-23T05:30:00Z,28.9818,-94.9186,2.0,65.99418501,72.41349391,-99999.0,'11111222,11111222,99999999' 
TABS,ioos:station:wmo:42043:1,2003-07-23T06:00:00Z,28.9818,-94.9186,2.0,65.72448797,72.65417951,-99999.0,'11111222,11111222,99999999' 
TABS,ioos:station:wmo:42043:1,2003-07-23T06:30:00Z,28.9818,-94.9186,2.0,65.56990397,72.14985586,-99999.0,'11111222,11111222,99999999' 
TABS,ioos:station:wmo:42043:1,2003-07-23T07:00:00Z,28.9818,-94.9186,2.0,65.07964364,73.54774028,-99999.0,'11111222,11111222,99999999' 
TABS,ioos:station:wmo:42043:1,2003-07-23T07:30:00Z,28.9818,-94.9186,2.0,66.71706207,80.22306526,-99999.0,'11111222,11111222,99999999' 
TABS,ioos:station:wmo:42043:1,2003-07-23T08:00:00Z,28.9818,-94.9186,2.0,69.97354144,84.5951021,-99999.0,'11111222,11111222,99999999' 
TABS,ioos:station:wmo:42043:1,2003-07-23T08:30:00Z,28.9818,-94.9186,2.0,71.19550109,91.67317438,-99999.0,'11111222,11111222,99999999' 
TABS,ioos:station:wmo:42043:1,2003-07-23T09:00:00Z,28.9818,-94.9186,2.0,68.9313148,109.3500695,-99999.0,'11111222,11111222,99999999' 
TABS,ioos:station:wmo:42043:1,2003-07-23T09:30:00Z,28.9818,-94.9186,2.0,71.91530547,94.67719947,-99999.0,'11111222,11111222,99999999' 
TABS,ioos:station:wmo:42043:1,2003-07-23T10:00:00Z,28.9818,-94.9186,2.0,73.22461013,92.92455703,-99999.0,'11111222,11111222,99999999' 
TABS,ioos:station:wmo:42043:1,2003-07-23T10:30:00Z,28.9818,-94.9186,2.0,73.6689507,91.82487027,-99999.0,'11111222,11111222,99999999' 
TABS,ioos:station:wmo:42043:1,2003-07-23T11:00:00Z,28.9818,-94.9186,2.0,71.28200145,90.24301912,-99999.0,'11111222,11111222,99999999' 
TABS,ioos:station:wmo:42043:1,2003-07-23T11:30:00Z,28.9818,-94.9186,2.0,73.47945573,90.30813252,-99999.0,'11111222,11111222,99999999' 
TABS,ioos:station:wmo:42043:1,2003-07-23T12:00:00Z,28.9818,-94.9186,2.0,74.28891017,90.03373423,-99999.0,'11111222,11111222,99999999' 
TABS,ioos:station:wmo:42043:1,2003-07-23T12:30:00Z,28.9818,-94.9186,2.0,73.89716685,90.45914105,-99999.0,'11111222,11111222,99999999' 
TABS,ioos:station:wmo:42043:1,2003-07-23T13:00:00Z,28.9818,-94.9186,2.0,74.07770441,88.72394265,-99999.0,'11111222,11111222,99999999' 
TABS,ioos:station:wmo:42043:1,2003-07-23T13:30:00Z,28.9818,-94.9186,2.0,74.8991413,86.02040804,-99999.0,'11111222,11111222,99999999' 
TABS,ioos:station:wmo:42043:1,2003-07-23T14:00:00Z,28.9818,-94.9186,2.0,75.11408483,88.47944959,-99999.0,'11111222,11111222,99999999' 
TABS,ioos:station:wmo:42043:1,2003-07-23T14:30:00Z,28.9818,-94.9186,2.0,77.31189997,86.59463494,-99999.0,'11111222,11111222,99999999' 
TABS,ioos:station:wmo:42043:1,2003-07-23T15:00:00Z,28.9818,-94.9186,2.0,78.21499937,86.56471568,-99999.0,'11111222,11111222,99999999' 
TABS,ioos:station:wmo:42043:1,2003-07-23T15:30:00Z,28.9818,-94.9186,2.0,81.40316787,84.02404418,-99999.0,'11111222,11111222,99999999' 
TABS,ioos:station:wmo:42043:1,2003-07-23T16:00:00Z,28.9818,-94.9186,2.0,81.15096142,85.0928581,-99999.0,'11111222,11111222,99999999' 
TABS,ioos:station:wmo:42043:1,2003-07-23T16:30:00Z,28.9818,-94.9186,2.0,79.97256786,83.50559562,-99999.0,'11111222,11111222,99999999' 
TABS,ioos:station:wmo:42043:1,2003-07-23T17:00:00Z,28.9818,-94.9186,2.0,81.44915899,74.72057414,-99999.0,'11111222,11111222,99999999' 
TABS,ioos:station:wmo:42043:1,2003-07-23T17:30:00Z,28.9818,-94.9186,2.0,80.33490106,89.64239734,-99999.0,'11111222,11111222,99999999' 
TABS,ioos:station:wmo:42043:1,2003-07-23T18:00:00Z,28.9818,-94.9186,2.0,80.25644882,84.73225891,-99999.0,'11111222,11111222,99999999' 
TABS,ioos:station:wmo:42043:1,2003-07-23T18:30:00Z,28.9818,-94.9186,2.0,84.3106477,85.94335809,-99999.0,'11111222,11111222,99999999' 
TABS,ioos:station:wmo:42043:1,2003-07-23T19:00:00Z,28.9818,-94.9186,2.0,81.77458681,68.84825415,-99999.0,'11111222,11111222,99999999' 
TABS,ioos:station:wmo:42043:1,2003-07-23T19:30:00Z,28.9818,-94.9186,2.0,82.78104992,70.34763464,-99999.0,'11111222,11111222,99999999' 
TABS,ioos:station:wmo:42043:1,2003-07-23T20:00:00Z,28.9818,-94.9186,2.0,79.54766474,67.74413997,-99999.0,'11111222,11111222,99999999' 
TABS,ioos:station:wmo:42043:1,2003-07-23T20:30:00Z,28.9818,-94.9186,2.0,78.38431191,69.08485362,-99999.0,'11111222,11111222,99999999' 
TABS,ioos:station:wmo:42043:1,2003-07-23T21:00:00Z,28.9818,-94.9186,2.0,76.66962282,62.41157745,-99999.0,'11111222,11111222,99999999' 
TABS,ioos:station:wmo:42043:1,2003-07-23T21:30:00Z,28.9818,-94.9186,2.0,73.43761138,60.96964819,-99999.0,'11111222,11111222,99999999' 
TABS,ioos:station:wmo:42043:1,2003-07-23T22:00:00Z,28.9818,-94.9186,2.0,76.0920702,57.41317706,-99999.0,'11111222,11111222,99999999' 
TABS,ioos:station:wmo:42043:1,2003-07-23T22:30:00Z,28.9818,-94.9186,2.0,76.60115056,58.21457721,-99999.0,'11111222,11111222,99999999' 
TABS,ioos:station:wmo:42043:1,2003-07-23T23:00:00Z,28.9818,-94.9186,2.0,73.59975761,60.20977994,-99999.0,'11111222,11111222,99999999' 
TABS,ioos:station:wmo:42043:1,2003-07-23T23:30:00Z,28.9818,-94.9186,2.0,74.18114755,60.34539005,-99999.0,'11111222,11111222,99999999' 
TABS,ioos:station:wmo:42043:1,2003-07-24T00:00:00Z,28.9818,-94.9186,2.0,77.71893631,55.19304757,-99999.0,'11111222,11111222,99999999' 
TABS,ioos:station:wmo:42043:1,2003-07-24T00:30:00Z,28.9818,-94.9186,2.0,77.61666904,57.68199459,-99999.0,'11111222,11111222,99999999' 
TABS,ioos:station:wmo:42043:1,2003-07-24T01:00:00Z,28.9818,-94.9186,2.0,72.76202413,54.80158027,-99999.0,'11111222,11111222,99999999' 
TABS,ioos:station:wmo:42043:1,2003-07-24T01:30:00Z,28.9818,-94.9186,2.0,73.16161789,53.23231068,-99999.0,'11111222,11111222,99999999' 
TABS,ioos:station:wmo:42043:1,2003-07-24T02:00:00Z,28.9818,-94.9186,2.0,70.67219808,57.22520074,-99999.0,'11111222,11111222,99999999' 
TABS,ioos:station:wmo:42043:1,2003-07-24T02:30:00Z,28.9818,-94.9186,2.0,65.88476197,72.71630491,-99999.0,'11111222,11111222,99999999' 
TABS,ioos:station:wmo:42043:1,2003-07-24T03:00:00Z,28.9818,-94.9186,2.0,60.13454486,63.61879675,-99999.0,'11111222,11111222,99999999' 
TABS,ioos:station:wmo:42043:1,2003-07-24T03:30:00Z,28.9818,-94.9186,2.0,62.34785124,61.99049121,-99999.0,'11111222,11111222,99999999' 
TABS,ioos:station:wmo:42043:1,2003-07-24T04:00:00Z,28.9818,-94.9186,2.0,65.50316711,62.70441452,-99999.0,'11111222,11111222,99999999' 
TABS,ioos:station:wmo:42043:1,2003-07-24T04:30:00Z,28.9818,-94.9186,2.0,63.71733384,62.62408003,-99999.0,'11111222,11111222,99999999' 
TABS,ioos:station:wmo:42043:1,2003-07-24T05:00:00Z,28.9818,-94.9186,2.0,62.94024219,77.68389795,-99999.0,'11111222,11111222,99999999' 
TABS,ioos:station:wmo:42043:1,2003-07-24T05:30:00Z,28.9818,-94.9186,2.0,58.83884651,77.12851678,-99999.0,'11111222,11111222,99999999' 
TABS,ioos:station:wmo:42043:1,2003-07-24T06:00:00Z,28.9818,-94.9186,2.0,58.12861505,74.37283442,-99999.0,'11111222,11111222,99999999' 
TABS,ioos:station:wmo:42043:1,2003-07-24T06:30:00Z,28.9818,-94.9186,2.0,54.14315004,70.93308537,-99999.0,'11111222,11111222,99999999' 
TABS,ioos:station:wmo:42043:1,2003-07-24T07:00:00Z,28.9818,-94.9186,2.0,50.95982542,63.26738575,-99999.0,'11111222,11111222,99999999' 
TABS,ioos:station:wmo:42043:1,2003-07-24T07:30:00Z,28.9818,-94.9186,2.0,53.8322477,62.67870532,-99999.0,'11111222,11111222,99999999' 
TABS,ioos:station:wmo:42043:1,2003-07-24T08:00:00Z,28.9818,-94.9186,2.0,57.21776632,62.14808927,-99999.0,'11111222,11111222,99999999' 
TABS,ioos:station:wmo:42043:1,2003-07-24T08:30:00Z,28.9818,-94.9186,2.0,60.74359048,65.33394906,-99999.0,'11111222,11111222,99999999' 
TABS,ioos:station:wmo:42043:1,2003-07-24T09:00:00Z,28.9818,-94.9186,2.0,58.17166872,70.00683395,-99999.0,'11111222,11111222,99999999' 
TABS,ioos:station:wmo:42043:1,2003-07-24T09:30:00Z,28.9818,-94.9186,2.0,55.35646348,73.8297264,-99999.0,'11111222,11111222,99999999' 
TABS,ioos:station:wmo:42043:1,2003-07-24T10:00:00Z,28.9818,-94.9186,2.0,58.67884512,76.96663303,-99999.0,'11111222,11111222,99999999' 
TABS,ioos:station:wmo:42043:1,2003-07-24T10:30:00Z,28.9818,-94.9186,2.0,59.01141327,74.97061358,-99999.0,'11111222,11111222,99999999' 
TABS,ioos:station:wmo:42043:1,2003-07-24T11:00:00Z,28.9818,-94.9186,2.0,61.55072937,78.61346513,-99999.0,'11111222,11111222,99999999' 
TABS,ioos:station:wmo:42043:1,2003-07-24T11:30:00Z,28.9818,-94.9186,2.0,61.50622663,79.98922177,-99999.0,'11111222,11111222,99999999' 
TABS,ioos:station:wmo:42043:1,2003-07-24T12:00:00Z,28.9818,-94.9186,2.0,62.04922623,79.51547334,-99999.0,'11111222,11111222,99999999' 
TABS,ioos:station:wmo:42043:1,2003-07-24T12:30:00Z,28.9818,-94.9186,2.0,64.26201188,76.22208079,-99999.0,'11111222,11111222,99999999' 
TABS,ioos:station:wmo:42043:1,2003-07-24T13:00:00Z,28.9818,-94.9186,2.0,66.48058898,77.60725804,-99999.0,'11111222,11111222,99999999' 
TABS,ioos:station:wmo:42043:1,2003-07-24T13:30:00Z,28.9818,-94.9186,2.0,68.29716227,83.15449537,-99999.0,'11111222,11111222,99999999' 
TABS,ioos:station:wmo:42043:1,2003-07-24T14:00:00Z,28.9818,-94.9186,2.0,67.2994218,82.94546703,-99999.0,'11111222,11111222,99999999' 
TABS,ioos:station:wmo:42043:1,2003-07-24T14:30:00Z,28.9818,-94.9186,2.0,68.74245858,83.7375137,-99999.0,'11111222,11111222,99999999' 
TABS,ioos:station:wmo:42043:1,2003-07-24T15:00:00Z,28.9818,-94.9186,2.0,72.11680978,81.44507474,-99999.0,'11111222,11111222,99999999' 
TABS,ioos:station:wmo:42043:1,2003-07-24T15:30:00Z,28.9818,-94.9186,2.0,70.23435322,79.92915175,-99999.0,'11111222,11111222,99999999' 
TABS,ioos:station:wmo:42043:1,2003-07-24T16:00:00Z,28.9818,-94.9186,2.0,67.47833717,78.58319222,-99999.0,'11111222,11111222,99999999' 
TABS,ioos:station:wmo:42043:1,2003-07-24T16:30:00Z,28.9818,-94.9186,2.0,71.05475142,66.74568001,-99999.0,'11111222,11111222,99999999' 
TABS,ioos:station:wmo:42043:1,2003-07-24T17:00:00Z,28.9818,-94.9186,2.0,74.1936114,61.16271822,-99999.0,'11111222,11111222,99999999' 
TABS,ioos:station:wmo:42043:1,2003-07-24T17:30:00Z,28.9818,-94.9186,2.0,74.38178911,57.01517868,-99999.0,'11111222,11111222,99999999' 
TABS,ioos:station:wmo:42043:1,2003-07-24T18:00:00Z,28.9818,-94.9186,2.0,77.25148324,55.14955122,-99999.0,'11111222,11111222,99999999' 
TABS,ioos:station:wmo:42043:1,2003-07-24T18:30:00Z,28.9818,-94.9186,2.0,75.92646695,48.40284496,-99999.0,'11111222,11111222,99999999' 
TABS,ioos:station:wmo:42043:1,2003-07-24T19:00:00Z,28.9818,-94.9186,2.0,79.70847874,46.23383718,-99999.0,'11111222,11111222,99999999' 
TABS,ioos:station:wmo:42043:1,2003-07-24T19:30:00Z,28.9818,-94.9186,2.0,80.53979207,45.02230669,-99999.0,'11111222,11111222,99999999' 
TABS,ioos:station:wmo:42043:1,2003-07-24T20:00:00Z,28.9818,-94.9186,2.0,81.31688706,36.62983756,-99999.0,'11111222,11111222,99999999' 
TABS,ioos:station:wmo:42043:1,2003-07-24T20:30:00Z,28.9818,-94.9186,2.0,82.1047992,30.35776342,-99999.0,'11111222,11111222,99999999' 
TABS,ioos:station:wmo:42043:1,2003-07-24T21:00:00Z,28.9818,-94.9186,2.0,79.77352896,32.04914507,-99999.0,'11111222,11111222,99999999' 
TABS,ioos:station:wmo:42043:1,2003-07-24T21:30:00Z,28.9818,-94.9186,2.0,86.85864295,29.74469533,-99999.0,'11111222,11111222,99999999' 
TABS,ioos:station:wmo:42043:1,2003-07-24T22:00:00Z,28.9818,-94.9186,2.0,81.68663447,22.54692218,-99999.0,'11111222,11111222,99999999' 
TABS,ioos:station:wmo:42043:1,2003-07-24T22:30:00Z,28.9818,-94.9186,2.0,69.87835754,23.3129256,-99999.0,'11111222,11111222,99999999' 
TABS,ioos:station:wmo:42043:1,2003-07-24T23:00:00Z,28.9818,-94.9186,2.0,78.42833904,23.18116908,-99999.0,'11111222,11111222,99999999' 
TABS,ioos:station:wmo:42043:1,2003-07-24T23:30:00Z,28.9818,-94.9186,2.0,58.9458015,26.05409757,-99999.0,'11111222,11111222,99999999' 
TABS,ioos:station:wmo:42043:1,2003-07-25T00:00:00Z,28.9818,-94.9186,2.0,56.04067713,28.32053142,-99999.0,'11111222,11111222,99999999' 
TABS,ioos:station:wmo:42043:1,2003-07-25T00:30:00Z,28.9818,-94.9186,2.0,65.97896038,26.8010914,-99999.0,'11111222,11111222,99999999' 
TABS,ioos:station:wmo:42043:1,2003-07-25T01:00:00Z,28.9818,-94.9186,2.0,61.27275265,28.56598327,-99999.0,'11111222,11111222,99999999' 
TABS,ioos:station:wmo:42043:1,2003-07-25T01:30:00Z,28.9818,-94.9186,2.0,51.59220334,31.96751633,-99999.0,'11111222,11111222,99999999' 
TABS,ioos:station:wmo:42043:1,2003-07-25T02:00:00Z,28.9818,-94.9186,2.0,52.00180027,31.78816446,-99999.0,'11111222,11111222,99999999' 
TABS,ioos:station:wmo:42043:1,2003-07-25T02:30:00Z,28.9818,-94.9186,2.0,44.92111312,30.77331636,-99999.0,'11111222,11111222,99999999' 
TABS,ioos:station:wmo:42043:1,2003-07-25T03:00:00Z,28.9818,-94.9186,2.0,44.60205244,32.57012435,-99999.0,'11111222,11111222,99999999' 
TABS,ioos:station:wmo:42043:1,2003-07-25T03:30:00Z,28.9818,-94.9186,2.0,36.92101177,33.71001335,-99999.0,'11111222,11111222,99999999' 
TABS,ioos:station:wmo:42043:1,2003-07-25T04:00:00Z,28.9818,-94.9186,2.0,38.79235252,38.51567603,-99999.0,'11111222,11111222,99999999' 
TABS,ioos:station:wmo:42043:1,2003-07-25T04:30:00Z,28.9818,-94.9186,2.0,46.68887369,40.78949375,-99999.0,'11111222,11111222,99999999' 
TABS,ioos:station:wmo:42043:1,2003-07-25T05:00:00Z,28.9818,-94.9186,2.0,43.55490058,44.01725684,-99999.0,'11111222,11111222,99999999' 